SEU7849 EPKT-HEMA

Flight info

Callsign SEU7849
Flight time 4h 6m
Altitude 35000
Route REGTO DCT RAZEC DCT KEKED DCT EMPOS DCT BIVBU DCT APROB DCT GRN DCT ADORU UN739 EKI UL854 KULAR UT39 NESIL/N0463F370 UT39 TOMBI DCT PEDER DCT MAROS DCT USEBE DCT EVORA DCT RASDA A16 CVO DCT NABED DCT LXR M999 ELELI V730 ALKUN ALKUN1D
Aircraft B738/M-SDE2E3FGHIRWXY/LB1

Departure

Time 2026-04-26 10:14
Airport Katowice Wojciech Korfanty International Airport (EPKT)

Arrival

Time 2026-04-26 14:21
Airport Marsa Alam International Airport (HEMA)
Time Latitude Longitude Altitude Speed Heading
2026-04-26 09:34 50.47142 19.09155 997 ft 0 kts 180°
2026-04-26 10:00 50.47143 19.09155 997 ft 0 kts 180°
2026-04-26 10:04 50.47165 19.09155 997 ft 4 kts 180°
2026-04-26 10:05 50.47192 19.09155 997 ft 4 kts 180°
2026-04-26 10:05 50.47217 19.09151 997 ft 4 kts 147°
2026-04-26 10:05 50.47230 19.09121 997 ft 4 kts 95°
2026-04-26 10:05 50.47231 19.09109 1000 ft 2 kts 90°
2026-04-26 10:10 50.47231 19.09156 997 ft 6 kts 89°
2026-04-26 10:10 50.47231 19.09220 1000 ft 6 kts 90°
2026-04-26 10:10 50.47231 19.09307 997 ft 12 kts 90°
2026-04-26 10:10 50.47231 19.09467 1003 ft 15 kts 90°
2026-04-26 10:11 50.47231 19.09632 997 ft 15 kts 90°
2026-04-26 10:11 50.47230 19.09791 1003 ft 14 kts 90°
2026-04-26 10:11 50.47229 19.09942 1000 ft 14 kts 89°
2026-04-26 10:11 50.47264 19.10073 997 ft 13 kts 54°
2026-04-26 10:12 50.47318 19.10185 1001 ft 13 kts 53°
2026-04-26 10:12 50.47370 19.10294 1001 ft 12 kts 53°
2026-04-26 10:12 50.47422 19.10400 1001 ft 12 kts 51°
2026-04-26 10:12 50.47496 19.10447 998 ft 12 kts
2026-04-26 10:13 50.47574 19.10427 997 ft 12 kts 322°
2026-04-26 10:13 50.47595 19.10312 997 ft 11 kts 270°
2026-04-26 10:13 50.47595 19.10190 997 ft 12 kts 270°
2026-04-26 10:13 50.47596 19.09980 1000 ft 31 kts 271°
2026-04-26 10:14 50.47597 19.09220 1001 ft 107 kts 270°
2026-04-26 10:14 50.47600 19.07695 1044 ft 167 kts 271°
2026-04-26 10:14 50.47602 19.05732 1617 ft 189 kts 273°
2026-04-26 10:14 50.47630 19.03653 2514 ft 190 kts 276°
2026-04-26 10:15 50.47670 19.01574 3224 ft 196 kts 274°
2026-04-26 10:15 50.47665 18.99317 3503 ft 216 kts 272°
2026-04-26 10:15 50.47510 18.97741 3807 ft 227 kts 255°
2026-04-26 10:15 50.46677 18.95585 4413 ft 239 kts 230°
2026-04-26 10:16 50.45219 18.94218 4995 ft 254 kts 201°
2026-04-26 10:16 50.43431 18.94021 5607 ft 265 kts 172°
2026-04-26 10:16 50.41731 18.95153 5991 ft 272 kts 142°
2026-04-26 10:16 50.40347 18.97297 6334 ft 289 kts 132°
2026-04-26 10:17 50.38984 18.99669 7026 ft 295 kts 131°
2026-04-26 10:17 50.37619 19.02087 7802 ft 298 kts 130°
2026-04-26 10:17 50.36238 19.04538 8551 ft 302 kts 130°
2026-04-26 10:17 50.34835 19.07022 9289 ft 307 kts 130°
2026-04-26 10:18 50.33406 19.09536 9979 ft 313 kts 130°
2026-04-26 10:18 50.31931 19.12120 10467 ft 326 kts 130°
2026-04-26 10:18 50.30359 19.14869 10640 ft 351 kts 130°
2026-04-26 10:18 50.28672 19.17809 10830 ft 374 kts 130°
2026-04-26 10:19 50.26882 19.20920 11011 ft 395 kts 130°
2026-04-26 10:19 50.25010 19.24172 11427 ft 407 kts 130°
2026-04-26 10:19 50.23095 19.27480 11969 ft 414 kts 130°
2026-04-26 10:19 50.21141 19.30849 12546 ft 422 kts 130°
2026-04-26 10:20 50.19156 19.34266 13079 ft 428 kts 130°
2026-04-26 10:20 50.17140 19.37735 13621 ft 435 kts 130°
2026-04-26 10:20 50.15092 19.41258 14148 ft 442 kts 130°
2026-04-26 10:20 50.13017 19.44823 14691 ft 448 kts 130°
2026-04-26 10:21 50.10908 19.48437 15208 ft 454 kts 130°
2026-04-26 10:21 50.08767 19.52104 15667 ft 462 kts 130°
2026-04-26 10:21 50.06593 19.55822 16157 ft 467 kts 130°
2026-04-26 10:21 50.04387 19.59587 16630 ft 474 kts 130°
2026-04-26 10:22 50.02151 19.63399 17098 ft 480 kts 130°
2026-04-26 10:22 49.99884 19.67257 17566 ft 486 kts 130°
2026-04-26 10:22 49.97588 19.71160 18009 ft 492 kts 130°
2026-04-26 10:22 49.95263 19.75103 18452 ft 498 kts 130°
2026-04-26 10:23 49.92907 19.79094 18896 ft 503 kts 131°
2026-04-26 10:23 49.90535 19.83107 19432 ft 506 kts 131°
2026-04-26 10:23 49.88151 19.87131 19953 ft 508 kts 131°
2026-04-26 10:23 49.85751 19.91180 20427 ft 512 kts 131°
2026-04-26 10:24 49.83331 19.95255 20868 ft 516 kts 131°
2026-04-26 10:24 49.80891 19.99358 21321 ft 519 kts 131°
2026-04-26 10:24 49.78437 20.03478 21736 ft 523 kts 131°
2026-04-26 10:24 49.75957 20.07635 22123 ft 527 kts 131°
2026-04-26 10:25 49.73464 20.11807 22519 ft 530 kts 131°
2026-04-26 10:25 49.70953 20.16000 22947 ft 532 kts 131°
2026-04-26 10:25 49.68430 20.20208 23341 ft 535 kts 131°
2026-04-26 10:25 49.65893 20.24431 23738 ft 538 kts 131°
2026-04-26 10:26 49.63338 20.28673 24101 ft 541 kts 131°
2026-04-26 10:26 49.60773 20.32928 24466 ft 543 kts 131°
2026-04-26 10:26 49.58195 20.37199 24843 ft 545 kts 131°
2026-04-26 10:26 49.55608 20.41482 25226 ft 546 kts 131°
2026-04-26 10:27 49.53014 20.45769 25579 ft 549 kts 131°
2026-04-26 10:27 49.50403 20.50074 25914 ft 551 kts 132°
2026-04-26 10:27 49.47814 20.54334 26253 ft 553 kts 132°
2026-04-26 10:27 49.45148 20.58714 26623 ft 555 kts 132°
2026-04-26 10:28 49.42544 20.62988 26988 ft 556 kts 132°
2026-04-26 10:28 49.39897 20.67320 27332 ft 558 kts 132°
2026-04-26 10:28 49.37139 20.71636 27596 ft 561 kts 135°
2026-04-26 10:28 49.34328 20.75808 27869 ft 563 kts 136°
2026-04-26 10:29 49.31528 20.79884 28139 ft 564 kts 136°
2026-04-26 10:29 49.28684 20.84027 28547 ft 563 kts 136°
2026-04-26 10:29 49.25867 20.88169 28994 ft 560 kts 136°
2026-04-26 10:29 49.23068 20.92317 29335 ft 561 kts 135°
2026-04-26 10:30 49.20272 20.96475 29687 ft 560 kts 135°
2026-04-26 10:30 49.17476 21.00623 30047 ft 559 kts 136°
2026-04-26 10:30 49.14543 21.04516 30387 ft 558 kts 145°
2026-04-26 10:30 49.11283 21.07672 30744 ft 554 kts 155°
2026-04-26 10:31 49.07809 21.10136 31125 ft 547 kts 163°
2026-04-26 10:31 49.04209 21.11854 31520 ft 537 kts 173°
2026-04-26 10:31 49.00573 21.13027 31930 ft 533 kts 174°
2026-04-26 10:31 48.96950 21.14166 32314 ft 531 kts 174°
2026-04-26 10:32 48.93339 21.15315 32638 ft 530 kts 174°
2026-04-26 10:32 48.89737 21.16493 32945 ft 529 kts 173°
2026-04-26 10:32 48.86149 21.17693 33284 ft 527 kts 173°
2026-04-26 10:32 48.82571 21.18905 33566 ft 526 kts 173°
2026-04-26 10:33 48.79001 21.20118 33860 ft 525 kts 173°
2026-04-26 10:33 48.75444 21.21326 34199 ft 522 kts 173°
2026-04-26 10:33 48.71910 21.22522 34548 ft 519 kts 173°
2026-04-26 10:33 48.68396 21.23707 34848 ft 517 kts 173°
2026-04-26 10:34 48.64889 21.24885 35103 ft 516 kts 173°
2026-04-26 10:34 48.61378 21.26063 35091 ft 519 kts 173°
2026-04-26 10:34 48.54325 21.28531 35089 ft 522 kts 168°
2026-04-26 10:35 48.47719 21.33126 35095 ft 526 kts 150°
2026-04-26 10:35 48.41558 21.39085 35079 ft 526 kts 150°
2026-04-26 10:36 48.35414 21.45022 35102 ft 524 kts 150°
2026-04-26 10:36 48.29248 21.50870 35083 ft 524 kts 151°
2026-04-26 10:37 48.23064 21.56666 35088 ft 525 kts 151°
2026-04-26 10:37 48.16865 21.62454 35095 ft 526 kts 151°
2026-04-26 10:38 48.10637 21.68256 35083 ft 528 kts 152°
2026-04-26 10:38 48.04433 21.74022 35076 ft 530 kts 152°
2026-04-26 10:39 47.98170 21.79830 35075 ft 530 kts 152°
2026-04-26 10:39 47.91895 21.85629 35075 ft 530 kts 152°
2026-04-26 10:40 47.85622 21.91412 35071 ft 530 kts 152°
2026-04-26 10:40 47.79349 21.97177 35069 ft 530 kts 152°
2026-04-26 10:41 47.73080 22.02922 35062 ft 529 kts 152°
2026-04-26 10:41 47.66820 22.08644 35062 ft 528 kts 152°
2026-04-26 10:42 47.60568 22.14339 35057 ft 527 kts 152°
2026-04-26 10:42 47.54330 22.20006 35053 ft 526 kts 152°
2026-04-26 10:43 47.48104 22.25649 35057 ft 525 kts 152°
2026-04-26 10:43 47.41885 22.31266 35050 ft 523 kts 152°
2026-04-26 10:44 47.35680 22.36856 35043 ft 522 kts 152°
2026-04-26 10:44 47.29496 22.42411 35047 ft 520 kts 152°
2026-04-26 10:45 47.23328 22.47939 35044 ft 518 kts 152°
2026-04-26 10:45 47.17184 22.53431 35036 ft 516 kts 152°
2026-04-26 10:46 47.11055 22.58891 35041 ft 514 kts 152°
2026-04-26 10:46 47.04943 22.64321 35038 ft 513 kts 152°
2026-04-26 10:47 46.98854 22.69717 35042 ft 511 kts 152°
2026-04-26 10:47 46.92768 22.75096 35035 ft 510 kts 152°
2026-04-26 10:48 46.86696 22.80449 35021 ft 509 kts 152°
2026-04-26 10:48 46.80638 22.85777 35023 ft 508 kts 152°
2026-04-26 10:49 46.74589 22.91080 35012 ft 506 kts 152°
2026-04-26 10:49 46.68547 22.96362 35003 ft 506 kts 152°
2026-04-26 10:50 46.63529 23.00739 34983 ft 505 kts 152°
2026-04-26 10:50 46.56521 23.06836 34984 ft 504 kts 152°
2026-04-26 10:51 46.47502 23.14655 34973 ft 503 kts 152°
2026-04-26 10:52 46.41498 23.19847 34975 ft 502 kts 152°
2026-04-26 10:52 46.35506 23.25014 34995 ft 501 kts 152°
2026-04-26 10:53 46.29516 23.30163 34977 ft 500 kts 152°
2026-04-26 10:53 46.23536 23.35292 34978 ft 500 kts 152°
2026-04-26 10:54 46.17545 23.40413 35425 ft 498 kts 152°
2026-04-26 10:54 46.14580 23.42947 35784 ft 494 kts 152°
2026-04-26 10:54 46.11635 23.45460 36110 ft 490 kts 152°
2026-04-26 10:54 46.08703 23.47958 36362 ft 489 kts 152°
2026-04-26 10:55 46.05776 23.50447 36568 ft 488 kts 152°
2026-04-26 10:55 46.02859 23.52926 36855 ft 484 kts 152°
2026-04-26 10:55 45.99967 23.55381 36958 ft 482 kts 152°
2026-04-26 10:55 45.98066 23.56992 36933 ft 479 kts 152°
2026-04-26 10:56 45.91449 23.62593 36954 ft 469 kts 152°
2026-04-26 10:56 45.85835 23.67328 36954 ft 468 kts 152°
2026-04-26 10:57 45.80223 23.72053 36951 ft 468 kts 152°
2026-04-26 10:57 45.74481 23.76410 36953 ft 467 kts 156°
2026-04-26 10:58 45.68631 23.80439 36948 ft 468 kts 157°
2026-04-26 10:58 45.62756 23.84477 36949 ft 469 kts 156°
2026-04-26 10:59 45.56881 23.88559 36943 ft 471 kts 156°
2026-04-26 10:59 45.50984 23.92669 36939 ft 473 kts 156°
2026-04-26 11:00 45.45069 23.96784 36943 ft 473 kts 156°
2026-04-26 11:00 45.39142 24.00895 36941 ft 475 kts 156°
2026-04-26 11:01 45.34200 24.04318 36933 ft 476 kts 157°
2026-04-26 11:01 45.27270 24.09105 36928 ft 477 kts 157°
2026-04-26 11:02 45.21308 24.13207 36943 ft 475 kts 157°
2026-04-26 11:02 45.16324 24.16639 36934 ft 475 kts 157°
2026-04-26 11:03 45.10374 24.20724 36936 ft 475 kts 158°
2026-04-26 11:03 45.04425 24.24794 36932 ft 475 kts 158°
2026-04-26 11:04 44.98478 24.28852 36927 ft 474 kts 158°
2026-04-26 11:04 44.92542 24.32896 36930 ft 474 kts 158°
2026-04-26 11:05 44.86640 24.37048 36921 ft 474 kts 156°
2026-04-26 11:05 44.80781 24.41292 36915 ft 473 kts 156°
2026-04-26 11:06 44.74932 24.45520 36930 ft 473 kts 156°
2026-04-26 11:06 44.69065 24.49727 36918 ft 473 kts 156°
2026-04-26 11:07 44.63207 24.53909 36929 ft 472 kts 156°
2026-04-26 11:07 44.57354 24.58073 36919 ft 472 kts 156°
2026-04-26 11:08 44.51497 24.62233 36930 ft 472 kts 156°
2026-04-26 11:08 44.45648 24.66379 36936 ft 471 kts 157°
2026-04-26 11:09 44.39835 24.70490 36936 ft 471 kts 157°
2026-04-26 11:09 44.33984 24.74617 36936 ft 471 kts 157°
2026-04-26 11:10 44.28131 24.78740 36931 ft 471 kts 157°
2026-04-26 11:10 44.22276 24.82854 36936 ft 471 kts 157°
2026-04-26 11:11 44.16412 24.86964 36939 ft 472 kts 157°
2026-04-26 11:11 44.10544 24.91067 36932 ft 472 kts 157°
2026-04-26 11:12 44.04672 24.95163 36936 ft 472 kts 157°
2026-04-26 11:12 43.98796 24.99258 36935 ft 473 kts 157°
2026-04-26 11:13 43.93057 25.03745 36930 ft 475 kts 150°
2026-04-26 11:13 43.87502 25.08728 36932 ft 475 kts 149°
2026-04-26 11:14 43.81963 25.13696 36932 ft 474 kts 150°
2026-04-26 11:14 43.76401 25.18584 36943 ft 473 kts 150°
2026-04-26 11:15 43.70837 25.23430 36946 ft 472 kts 150°
2026-04-26 11:15 43.65275 25.28257 36943 ft 472 kts 151°
2026-04-26 11:16 43.59711 25.33077 36949 ft 472 kts 150°
2026-04-26 11:16 43.54154 25.37885 36952 ft 472 kts 150°
2026-04-26 11:17 43.48591 25.42685 36934 ft 472 kts 150°
2026-04-26 11:17 43.43028 25.47475 36936 ft 471 kts 150°
2026-04-26 11:18 43.37467 25.52253 36936 ft 471 kts 150°
2026-04-26 11:18 43.31902 25.57024 36937 ft 471 kts 150°
2026-04-26 11:19 43.26338 25.61784 36933 ft 471 kts 150°
2026-04-26 11:19 43.20774 25.66536 36935 ft 471 kts 150°
2026-04-26 11:20 43.16148 25.70476 36936 ft 471 kts 151°
2026-04-26 11:20 43.09410 25.75386 36934 ft 469 kts 156°
2026-04-26 11:21 43.03545 25.79292 36936 ft 469 kts 157°
2026-04-26 11:21 42.97716 25.83190 36945 ft 470 kts 156°
2026-04-26 11:22 42.91821 25.87172 36945 ft 470 kts 156°
2026-04-26 11:22 42.85961 25.91144 36947 ft 471 kts 156°
2026-04-26 11:23 42.80136 25.95084 36948 ft 471 kts 156°
2026-04-26 11:23 42.74262 25.99044 36939 ft 471 kts 156°
2026-04-26 11:24 42.68390 26.02993 36944 ft 471 kts 156°
2026-04-26 11:24 42.62523 26.06934 36943 ft 471 kts 156°
2026-04-26 11:25 42.56650 26.10871 36944 ft 470 kts 155°
2026-04-26 11:25 42.50785 26.14795 36939 ft 470 kts 155°
2026-04-26 11:26 42.44926 26.18705 36946 ft 469 kts 155°
2026-04-26 11:26 42.39072 26.22602 36940 ft 469 kts 155°
2026-04-26 11:27 42.33218 26.26493 36946 ft 469 kts 155°
2026-04-26 11:27 42.27361 26.30379 36943 ft 469 kts 155°
2026-04-26 11:28 42.21499 26.34257 36953 ft 469 kts 155°
2026-04-26 11:28 42.15644 26.38123 36951 ft 468 kts 155°
2026-04-26 11:29 42.09789 26.41981 36954 ft 468 kts 155°
2026-04-26 11:29 42.03935 26.45834 36952 ft 468 kts 155°
2026-04-26 11:30 41.99027 26.49055 36960 ft 469 kts 155°
2026-04-26 11:30 41.92222 26.53516 36962 ft 468 kts 155°
2026-04-26 11:31 41.86401 26.57446 36952 ft 469 kts 148°
2026-04-26 11:31 41.81397 26.63033 36973 ft 469 kts 134°
2026-04-26 11:32 41.76729 26.69125 36959 ft 469 kts 141°
2026-04-26 11:32 41.71253 26.73817 36981 ft 467 kts 154°
2026-04-26 11:33 41.65500 26.77850 36965 ft 468 kts 149°
2026-04-26 11:33 41.60228 26.82932 36979 ft 467 kts 141°
2026-04-26 11:34 41.55084 26.88214 36965 ft 467 kts 147°
2026-04-26 11:34 41.49503 26.92626 36979 ft 466 kts 147°
2026-04-26 11:35 41.44144 26.97493 36985 ft 466 kts 146°
2026-04-26 11:35 41.39682 27.01511 36981 ft 466 kts 146°
2026-04-26 11:36 41.33449 27.07249 36980 ft 466 kts 145°
2026-04-26 11:36 41.28137 27.12181 36979 ft 466 kts 145°
2026-04-26 11:37 41.22860 27.17071 36989 ft 465 kts 145°
2026-04-26 11:37 41.17550 27.21974 36990 ft 464 kts 145°
2026-04-26 11:38 41.12249 27.26855 36991 ft 464 kts 145°
2026-04-26 11:38 41.06920 27.31758 36990 ft 463 kts 145°
2026-04-26 11:39 41.01667 27.36583 36989 ft 462 kts 144°
2026-04-26 11:39 40.96380 27.41420 36992 ft 462 kts 146°
2026-04-26 11:40 40.90622 27.45146 37005 ft 462 kts 159°
2026-04-26 11:40 40.84631 27.48194 36990 ft 461 kts 159°
2026-04-26 11:42 40.60812 27.60654 36999 ft 460 kts 158°
2026-04-26 11:43 40.54860 27.63772 36987 ft 461 kts 158°
2026-04-26 11:43 40.48904 27.66895 36992 ft 461 kts 157°
2026-04-26 11:44 40.42957 27.70035 36990 ft 460 kts 157°
2026-04-26 11:44 40.37018 27.73169 36989 ft 460 kts 157°
2026-04-26 11:45 40.31078 27.76293 36989 ft 459 kts 157°
2026-04-26 11:45 40.25147 27.79407 36992 ft 459 kts 157°
2026-04-26 11:46 40.19215 27.82516 36992 ft 459 kts 157°
2026-04-26 11:46 40.14290 27.85092 36989 ft 458 kts 157°
2026-04-26 11:47 40.08365 27.88181 36994 ft 458 kts 157°
2026-04-26 11:47 40.02444 27.91268 36992 ft 458 kts 157°
2026-04-26 11:48 39.96521 27.94350 36993 ft 458 kts 157°
2026-04-26 11:48 39.90600 27.97425 36989 ft 458 kts 157°
2026-04-26 11:49 39.84671 28.00487 36994 ft 458 kts 157°
2026-04-26 11:49 39.78718 28.03470 36989 ft 458 kts 158°
2026-04-26 11:50 39.72764 28.06429 36987 ft 458 kts 158°
2026-04-26 11:50 39.66819 28.09389 36991 ft 458 kts 158°
2026-04-26 11:51 39.60866 28.12353 36989 ft 458 kts 158°
2026-04-26 11:51 39.54918 28.15314 36989 ft 458 kts 158°
2026-04-26 11:52 39.48967 28.18270 36990 ft 458 kts 158°
2026-04-26 11:52 39.43009 28.21221 36992 ft 458 kts 158°
2026-04-26 11:53 39.37057 28.24164 36991 ft 458 kts 158°
2026-04-26 11:54 39.28129 28.28568 36994 ft 457 kts 158°
2026-04-26 11:54 39.22173 28.31465 36990 ft 458 kts 158°
2026-04-26 11:55 39.16209 28.34362 36986 ft 458 kts 158°
2026-04-26 11:55 39.10240 28.37260 36980 ft 459 kts 158°
2026-04-26 11:56 39.04309 28.40135 36980 ft 458 kts 158°
2026-04-26 11:56 38.98374 28.43110 36987 ft 458 kts 158°
2026-04-26 11:57 38.92448 28.46120 36979 ft 458 kts 158°
2026-04-26 11:57 38.86519 28.49116 36971 ft 458 kts 158°
2026-04-26 11:58 38.80585 28.52100 36972 ft 458 kts 158°
2026-04-26 11:58 38.74645 28.55091 36974 ft 459 kts 158°
2026-04-26 11:59 38.68655 28.58067 36966 ft 458 kts 158°
2026-04-26 11:59 38.62723 28.61040 36978 ft 458 kts 158°
2026-04-26 12:00 38.56943 28.64293 36954 ft 457 kts 147°
2026-04-26 12:00 38.51699 28.68937 36963 ft 456 kts 143°
2026-04-26 12:01 38.46589 28.73629 36972 ft 455 kts 143°
2026-04-26 12:01 38.41426 28.78309 36971 ft 456 kts 144°
2026-04-26 12:02 38.36238 28.82953 36974 ft 455 kts 144°
2026-04-26 12:02 38.31045 28.87573 36967 ft 455 kts 144°
2026-04-26 12:03 38.25846 28.92197 36976 ft 456 kts 144°
2026-04-26 12:03 38.20646 28.96814 36960 ft 456 kts 144°
2026-04-26 12:04 38.15446 29.01420 36964 ft 455 kts 144°
2026-04-26 12:04 38.10249 29.06018 36972 ft 455 kts 144°
2026-04-26 12:05 38.05052 29.10608 36974 ft 455 kts 144°
2026-04-26 12:05 37.99852 29.15191 36972 ft 455 kts 144°
2026-04-26 12:06 37.94662 29.19759 36984 ft 454 kts 145°
2026-04-26 12:06 37.89472 29.24316 36989 ft 454 kts 145°
2026-04-26 12:07 37.84288 29.28863 36993 ft 453 kts 145°
2026-04-26 12:07 37.79105 29.33401 36991 ft 453 kts 145°
2026-04-26 12:08 37.73922 29.37929 36993 ft 453 kts 145°
2026-04-26 12:08 37.68737 29.42447 36988 ft 453 kts 145°
2026-04-26 12:09 37.63554 29.46970 37000 ft 453 kts 144°
2026-04-26 12:09 37.58395 29.51532 36985 ft 453 kts 146°
2026-04-26 12:10 37.53222 29.55962 36993 ft 452 kts 146°
2026-04-26 12:10 37.48029 29.60436 36981 ft 452 kts 145°
2026-04-26 12:11 37.42842 29.64920 36982 ft 452 kts 146°
2026-04-26 12:11 37.37657 29.69403 36984 ft 452 kts 145°
2026-04-26 12:12 37.32468 29.73879 36983 ft 452 kts 145°
2026-04-26 12:12 37.27280 29.78359 36982 ft 452 kts 145°
2026-04-26 12:13 37.22096 29.82831 36981 ft 452 kts 146°
2026-04-26 12:13 37.16909 29.87302 36973 ft 453 kts 146°
2026-04-26 12:14 37.11709 29.91776 36970 ft 453 kts 146°
2026-04-26 12:14 37.06505 29.96227 36968 ft 453 kts 146°
2026-04-26 12:15 37.01283 30.00673 36959 ft 454 kts 146°
2026-04-26 12:15 36.96060 30.05119 36966 ft 454 kts 147°
2026-04-26 12:16 36.90825 30.09569 36951 ft 455 kts 147°
2026-04-26 12:16 36.85590 30.14014 36946 ft 455 kts 147°
2026-04-26 12:17 36.80351 30.18459 36934 ft 455 kts 147°
2026-04-26 12:17 36.75113 30.22899 36931 ft 455 kts 147°
2026-04-26 12:18 36.69877 30.27331 36930 ft 455 kts 147°
2026-04-26 12:18 36.64642 30.31755 36930 ft 454 kts 147°
2026-04-26 12:19 36.59406 30.36172 36922 ft 455 kts 147°
2026-04-26 12:19 36.54169 30.40579 36908 ft 455 kts 147°
2026-04-26 12:20 36.48929 30.44979 36930 ft 454 kts 147°
2026-04-26 12:20 36.43933 30.49172 36929 ft 454 kts 147°
2026-04-26 12:21 36.38700 30.53566 36918 ft 454 kts 147°
2026-04-26 12:21 36.33506 30.57918 36929 ft 453 kts 147°
2026-04-26 12:22 36.28278 30.62287 36931 ft 453 kts 148°
2026-04-26 12:22 36.23051 30.66646 36914 ft 453 kts 148°
2026-04-26 12:23 36.17821 30.71005 36930 ft 453 kts 148°
2026-04-26 12:23 36.12589 30.75355 36923 ft 453 kts 148°
2026-04-26 12:24 36.07339 30.79674 36921 ft 453 kts 151°
2026-04-26 12:24 36.04517 30.81355 36931 ft 449 kts 162°
2026-04-26 12:24 36.01516 30.82395 36915 ft 447 kts 171°
2026-04-26 12:25 35.92243 30.83059 36916 ft 445 kts 181°
2026-04-26 12:25 35.86053 30.83284 36917 ft 445 kts 180°
2026-04-26 12:26 35.79861 30.83555 36919 ft 445 kts 180°
2026-04-26 12:26 35.73674 30.83849 36922 ft 445 kts 180°
2026-04-26 12:27 35.67489 30.84147 36922 ft 445 kts 180°
2026-04-26 12:27 35.61313 30.84442 36911 ft 444 kts 180°
2026-04-26 12:28 35.55132 30.84736 36918 ft 444 kts 180°
2026-04-26 12:28 35.48958 30.85028 36923 ft 444 kts 180°
2026-04-26 12:29 35.42790 30.85320 36913 ft 443 kts 180°
2026-04-26 12:30 35.33584 30.85756 36920 ft 443 kts 181°
2026-04-26 12:30 35.27427 30.86046 36918 ft 442 kts 181°
2026-04-26 12:31 35.18205 30.86482 36921 ft 442 kts 181°
2026-04-26 12:31 35.12067 30.86708 36905 ft 441 kts 181°
2026-04-26 12:32 35.05939 30.86891 36920 ft 441 kts 182°
2026-04-26 12:33 34.96737 30.87179 36921 ft 441 kts 182°
2026-04-26 12:33 34.90599 30.87376 36924 ft 441 kts 182°
2026-04-26 12:34 34.85498 30.87541 36910 ft 441 kts 182°
2026-04-26 12:34 34.79360 30.87737 36918 ft 441 kts 182°
2026-04-26 12:35 34.73226 30.87932 36916 ft 441 kts 182°
2026-04-26 12:35 34.67090 30.88128 36908 ft 441 kts 182°
2026-04-26 12:36 34.60960 30.88326 36901 ft 441 kts 182°
2026-04-26 12:36 34.54827 30.88629 36902 ft 441 kts 181°
2026-04-26 12:37 34.48699 30.88979 36929 ft 441 kts 181°
2026-04-26 12:37 34.42572 30.89314 36929 ft 441 kts 181°
2026-04-26 12:38 34.36449 30.89639 36920 ft 440 kts 181°
2026-04-26 12:38 34.30332 30.89961 36920 ft 440 kts 181°
2026-04-26 12:39 34.24219 30.90284 36930 ft 440 kts 181°
2026-04-26 12:39 34.18102 30.90604 36937 ft 440 kts 182°
2026-04-26 12:40 34.12030 30.90923 36933 ft 440 kts 182°
2026-04-26 12:40 34.05917 30.91244 36936 ft 440 kts 182°
2026-04-26 12:41 33.99799 30.91565 36936 ft 440 kts 182°
2026-04-26 12:41 33.93682 30.91887 36942 ft 440 kts 182°
2026-04-26 12:42 33.87563 30.92241 36933 ft 440 kts 182°
2026-04-26 12:42 33.81442 30.92603 36938 ft 440 kts 182°
2026-04-26 12:43 33.75325 30.92961 36935 ft 440 kts 182°
2026-04-26 12:43 33.69211 30.93316 36941 ft 439 kts 182°
2026-04-26 12:44 33.63112 30.93668 36946 ft 439 kts 183°
2026-04-26 12:44 33.57010 30.94020 36944 ft 439 kts 183°
2026-04-26 12:45 33.50915 30.94372 36944 ft 438 kts 183°
2026-04-26 12:45 33.44822 30.94722 36944 ft 438 kts 183°
2026-04-26 12:46 33.38736 30.95061 36954 ft 437 kts 184°
2026-04-26 12:46 33.32683 30.95082 36956 ft 434 kts 186°
2026-04-26 12:47 33.26635 30.95016 36945 ft 435 kts 186°
2026-04-26 12:47 33.20580 30.94998 36946 ft 435 kts 186°
2026-04-26 12:48 33.14530 30.95001 36943 ft 435 kts 186°
2026-04-26 12:48 33.08469 30.95076 36942 ft 438 kts 183°
2026-04-26 12:49 33.02376 30.95720 36949 ft 440 kts 181°
2026-04-26 12:49 32.96315 30.96479 36944 ft 441 kts 181°
2026-04-26 12:50 32.90214 30.97203 36946 ft 441 kts 181°
2026-04-26 12:50 32.84106 30.97894 36948 ft 441 kts 181°
2026-04-26 12:51 32.77996 30.98574 36955 ft 441 kts 182°
2026-04-26 12:51 32.71891 30.99251 36953 ft 441 kts 182°
2026-04-26 12:52 32.65778 30.99929 36954 ft 441 kts 182°
2026-04-26 12:52 32.59673 31.00605 36953 ft 441 kts 182°
2026-04-26 12:53 32.53563 31.01280 36955 ft 441 kts 182°
2026-04-26 12:53 32.47458 31.01956 36954 ft 441 kts 182°
2026-04-26 12:54 32.41351 31.02631 36953 ft 441 kts 182°
2026-04-26 12:54 32.35245 31.03302 36954 ft 441 kts 182°
2026-04-26 12:55 32.29140 31.03976 36952 ft 440 kts 182°
2026-04-26 12:55 32.23040 31.04647 36954 ft 440 kts 182°
2026-04-26 12:56 32.16947 31.05316 36960 ft 439 kts 182°
2026-04-26 12:56 32.10863 31.05983 36964 ft 439 kts 182°
2026-04-26 12:57 32.04780 31.06649 36962 ft 439 kts 182°
2026-04-26 12:57 31.98700 31.07315 36965 ft 439 kts 183°
2026-04-26 12:58 31.89578 31.08308 36963 ft 439 kts 184°
2026-04-26 12:58 31.83494 31.08973 36964 ft 439 kts 184°
2026-04-26 12:59 31.77413 31.09637 36962 ft 439 kts 184°
2026-04-26 12:59 31.71327 31.10299 36967 ft 439 kts 184°
2026-04-26 13:00 31.65239 31.10960 36965 ft 440 kts 184°
2026-04-26 13:00 31.59145 31.11623 36961 ft 440 kts 184°
2026-04-26 13:01 31.53052 31.12287 36961 ft 440 kts 183°
2026-04-26 13:01 31.46989 31.13302 36965 ft 445 kts 180°
2026-04-26 13:02 31.40885 31.14489 36965 ft 444 kts 180°
2026-04-26 13:02 31.34784 31.15639 36961 ft 444 kts 181°
2026-04-26 13:03 31.28681 31.16760 36965 ft 444 kts 181°
2026-04-26 13:03 31.22581 31.17879 36963 ft 444 kts 181°
2026-04-26 13:04 31.16482 31.19015 36975 ft 444 kts 181°
2026-04-26 13:04 31.10381 31.20154 36965 ft 444 kts 181°
2026-04-26 13:05 31.04283 31.21291 36963 ft 444 kts 181°
2026-04-26 13:05 30.98180 31.22426 36964 ft 444 kts 181°
2026-04-26 13:06 30.92078 31.23559 36966 ft 444 kts 181°
2026-04-26 13:06 30.85965 31.24688 36961 ft 445 kts 181°
2026-04-26 13:07 30.79862 31.25820 36958 ft 444 kts 181°
2026-04-26 13:07 30.73763 31.26950 36964 ft 444 kts 181°
2026-04-26 13:08 30.67669 31.28075 36962 ft 444 kts 182°
2026-04-26 13:08 30.61573 31.29198 36963 ft 443 kts 182°
2026-04-26 13:09 30.55481 31.30321 36964 ft 443 kts 182°
2026-04-26 13:09 30.49385 31.31442 36963 ft 443 kts 182°
2026-04-26 13:10 30.43286 31.32561 36962 ft 444 kts 182°
2026-04-26 13:10 30.37191 31.33681 36965 ft 443 kts 182°
2026-04-26 13:11 30.31101 31.34796 36961 ft 443 kts 182°
2026-04-26 13:11 30.25008 31.35911 36962 ft 443 kts 182°
2026-04-26 13:12 30.18926 31.37024 36964 ft 443 kts 182°
2026-04-26 13:12 30.12844 31.38135 36963 ft 443 kts 182°
2026-04-26 13:13 30.06759 31.39454 36965 ft 451 kts 177°
2026-04-26 13:13 30.00704 31.41446 36964 ft 454 kts 175°
2026-04-26 13:14 29.94654 31.43540 36972 ft 453 kts 175°
2026-04-26 13:14 29.88601 31.45582 36970 ft 453 kts 176°
2026-04-26 13:15 29.82534 31.47559 36976 ft 453 kts 177°
2026-04-26 13:15 29.79464 31.48548 35544 ft 477 kts 170°
2026-04-26 13:15 29.78259 31.49013 35098 ft 476 kts 175°
2026-04-26 13:16 29.74034 31.50137 34696 ft 453 kts 180°
2026-04-26 13:16 29.71920 31.50558 34784 ft 447 kts 182°
2026-04-26 13:16 29.68870 31.51115 35176 ft 445 kts 180°
2026-04-26 13:16 29.65824 31.52052 35336 ft 460 kts 174°
2026-04-26 13:17 29.59731 31.54153 35600 ft 462 kts 176°
2026-04-26 13:17 29.56583 31.55168 35737 ft 464 kts 176°
2026-04-26 13:18 29.50368 31.57176 36281 ft 462 kts 176°
2026-04-26 13:18 29.47274 31.58186 36489 ft 463 kts 176°
2026-04-26 13:18 29.41086 31.60221 36988 ft 460 kts 176°
2026-04-26 13:19 29.38045 31.61225 36952 ft 461 kts 176°
2026-04-26 13:19 29.31922 31.63250 36974 ft 456 kts 176°
2026-04-26 13:20 29.25835 31.65257 36975 ft 454 kts 176°
2026-04-26 13:20 29.19781 31.67249 36982 ft 452 kts 176°
2026-04-26 13:21 29.13745 31.69231 36982 ft 451 kts 176°
2026-04-26 13:21 29.08726 31.70877 36982 ft 452 kts 176°
2026-04-26 13:22 29.02686 31.72858 36990 ft 453 kts 176°
2026-04-26 13:22 28.96608 31.74843 36986 ft 455 kts 176°
2026-04-26 13:23 28.90506 31.76836 36989 ft 457 kts 176°
2026-04-26 13:23 28.84370 31.78842 36993 ft 460 kts 176°
2026-04-26 13:24 28.78208 31.80869 36991 ft 462 kts 176°
2026-04-26 13:24 28.72018 31.82891 36992 ft 463 kts 176°
2026-04-26 13:25 28.65815 31.84908 36996 ft 464 kts 176°
2026-04-26 13:25 28.59601 31.86928 36988 ft 465 kts 176°
2026-04-26 13:26 28.53383 31.88948 36991 ft 464 kts 176°
2026-04-26 13:26 28.47176 31.90962 36987 ft 464 kts 176°
2026-04-26 13:27 28.40962 31.92977 36999 ft 464 kts 176°
2026-04-26 13:27 28.34759 31.94984 37006 ft 464 kts 176°
2026-04-26 13:28 28.28552 31.96988 36997 ft 463 kts 176°
2026-04-26 13:28 28.22357 31.98988 37002 ft 463 kts 176°
2026-04-26 13:29 28.16160 32.00985 36992 ft 463 kts 176°
2026-04-26 13:29 28.09967 32.02978 36991 ft 463 kts 176°
2026-04-26 13:30 28.03776 32.04969 36989 ft 462 kts 176°
2026-04-26 13:30 27.97593 32.06956 36994 ft 461 kts 176°
2026-04-26 13:31 27.91426 32.08933 36989 ft 461 kts 176°
2026-04-26 13:31 27.85253 32.10910 36990 ft 461 kts 176°
2026-04-26 13:32 27.79086 32.12884 36990 ft 461 kts 176°
2026-04-26 13:32 27.72915 32.14855 36982 ft 461 kts 176°
2026-04-26 13:33 27.66740 32.16827 36972 ft 461 kts 176°
2026-04-26 13:33 27.60564 32.18796 36973 ft 461 kts 176°
2026-04-26 13:34 27.54387 32.20763 36974 ft 461 kts 176°
2026-04-26 13:34 27.48204 32.22731 36938 ft 462 kts 176°
2026-04-26 13:35 27.42005 32.24690 36929 ft 462 kts 176°
2026-04-26 13:35 27.35811 32.26660 36922 ft 463 kts 176°
2026-04-26 13:36 27.29606 32.28629 36921 ft 464 kts 176°
2026-04-26 13:36 27.23394 32.30598 36925 ft 464 kts 176°
2026-04-26 13:37 27.17214 32.32552 36930 ft 465 kts 176°
2026-04-26 13:37 27.10987 32.34519 36933 ft 465 kts 176°
2026-04-26 13:38 27.04755 32.36481 36926 ft 465 kts 176°
2026-04-26 13:38 26.98522 32.38449 36951 ft 465 kts 176°
2026-04-26 13:39 26.92294 32.40407 36955 ft 465 kts 177°
2026-04-26 13:39 26.86069 32.42360 36952 ft 464 kts 177°
2026-04-26 13:40 26.79851 32.44311 36955 ft 464 kts 177°
2026-04-26 13:40 26.73633 32.46262 36954 ft 464 kts 177°
2026-04-26 13:41 26.67409 32.48208 36942 ft 464 kts 177°
2026-04-26 13:41 26.61186 32.50150 36945 ft 465 kts 177°
2026-04-26 13:42 26.54959 32.52097 36940 ft 464 kts 177°
2026-04-26 13:42 26.48736 32.54039 36954 ft 465 kts 177°
2026-04-26 13:43 26.42499 32.55986 36940 ft 465 kts 177°
2026-04-26 13:43 26.36257 32.57926 36939 ft 466 kts 177°
2026-04-26 13:44 26.30021 32.59870 36938 ft 465 kts 176°
2026-04-26 13:44 26.23802 32.61812 36914 ft 464 kts 177°
2026-04-26 13:45 26.17579 32.63729 36919 ft 464 kts 177°
2026-04-26 13:45 26.11359 32.65652 36915 ft 464 kts 177°
2026-04-26 13:46 26.05144 32.67576 36917 ft 464 kts 177°
2026-04-26 13:46 25.98950 32.69552 36914 ft 461 kts 176°
2026-04-26 13:47 25.92818 32.71343 36910 ft 461 kts 176°
2026-04-26 13:47 25.86627 32.73278 36921 ft 464 kts 176°
2026-04-26 13:48 25.80398 32.75214 36928 ft 466 kts 176°
2026-04-26 13:48 25.77296 32.76427 36907 ft 485 kts 164°
2026-04-26 13:48 25.74400 32.78493 36928 ft 507 kts 149°
2026-04-26 13:48 25.71942 32.81392 36912 ft 526 kts 133°
2026-04-26 13:49 25.69905 32.84764 36937 ft 527 kts 130°
2026-04-26 13:49 25.66008 32.91625 36907 ft 524 kts 129°
2026-04-26 13:49 25.64046 32.95050 36427 ft 527 kts 130°
2026-04-26 13:50 25.62061 32.98453 35865 ft 525 kts 131°
2026-04-26 13:50 25.60056 33.01836 35278 ft 526 kts 131°
2026-04-26 13:50 25.58031 33.05221 34599 ft 528 kts 131°
2026-04-26 13:50 25.55998 33.08603 33960 ft 529 kts 132°
2026-04-26 13:51 25.53955 33.11999 33277 ft 530 kts 131°
2026-04-26 13:51 25.51914 33.15397 32565 ft 531 kts 131°
2026-04-26 13:51 25.49864 33.18807 31849 ft 532 kts 131°
2026-04-26 13:51 25.47811 33.22220 31087 ft 533 kts 131°
2026-04-26 13:52 25.45760 33.25637 30313 ft 534 kts 130°
2026-04-26 13:52 25.43701 33.29055 29492 ft 535 kts 130°
2026-04-26 13:52 25.41633 33.32487 28597 ft 536 kts 130°
2026-04-26 13:52 25.39571 33.35916 27714 ft 536 kts 129°
2026-04-26 13:53 25.37519 33.39329 27088 ft 529 kts 129°
2026-04-26 13:53 25.35493 33.42695 26440 ft 523 kts 129°
2026-04-26 13:53 25.33682 33.46113 25789 ft 524 kts 117°
2026-04-26 13:53 25.32703 33.50041 25189 ft 525 kts 99°
2026-04-26 13:54 25.32671 33.54031 24919 ft 514 kts 84°
2026-04-26 13:54 25.33434 33.57869 24291 ft 509 kts 73°
2026-04-26 13:54 25.34468 33.61583 23723 ft 503 kts 73°
2026-04-26 13:55 25.36464 33.68910 22438 ft 493 kts 74°
2026-04-26 13:55 25.37089 33.71311 22024 ft 489 kts 74°
2026-04-26 13:55 25.39202 33.79665 20566 ft 476 kts 75°
2026-04-26 13:56 25.40070 33.83130 19959 ft 471 kts 75°
2026-04-26 13:56 25.40943 33.86603 19333 ft 466 kts 75°
2026-04-26 13:56 25.41819 33.90081 18726 ft 461 kts 75°
2026-04-26 13:56 25.42671 33.93471 18135 ft 455 kts 76°
2026-04-26 13:57 25.43496 33.96780 17560 ft 449 kts 76°
2026-04-26 13:57 25.44330 34.00135 16957 ft 444 kts 76°
2026-04-26 13:57 25.44871 34.02307 16578 ft 441 kts 75°
2026-04-26 13:57 25.45612 34.05288 16033 ft 437 kts 75°
2026-04-26 13:58 25.46419 34.08520 15436 ft 433 kts 73°
2026-04-26 13:58 25.47668 34.11515 14824 ft 428 kts 53°
2026-04-26 13:58 25.49626 34.13875 14281 ft 419 kts 36°
2026-04-26 13:58 25.52017 34.15663 13705 ft 412 kts 28°
2026-04-26 13:59 25.54437 34.17337 13119 ft 409 kts 29°
2026-04-26 13:59 25.56826 34.19022 12457 ft 407 kts 29°
2026-04-26 13:59 25.59235 34.20756 11702 ft 407 kts 29°
2026-04-26 14:00 25.66175 34.25810 9707 ft 380 kts 31°
2026-04-26 14:00 25.68300 34.27362 9699 ft 354 kts 31°
2026-04-26 14:00 25.68988 34.27865 9649 ft 348 kts 31°
2026-04-26 14:01 25.72201 34.30209 9442 ft 318 kts 32°
2026-04-26 14:01 25.73770 34.31847 9297 ft 307 kts 56°
2026-04-26 14:01 25.74560 34.33990 9077 ft 298 kts 79°
2026-04-26 14:01 25.74698 34.35517 8908 ft 292 kts 92°
2026-04-26 14:02 25.74393 34.37677 8675 ft 283 kts 104°
2026-04-26 14:02 25.74089 34.39799 8408 ft 276 kts 86°
2026-04-26 14:02 25.74549 34.41819 8185 ft 267 kts 67°
2026-04-26 14:02 25.75286 34.43691 7837 ft 265 kts 65°
2026-04-26 14:03 25.76284 34.45387 7443 ft 262 kts 39°
2026-04-26 14:03 25.77824 34.46289 7373 ft 244 kts
2026-04-26 14:03 25.79468 34.46225 7124 ft 236 kts 339°
2026-04-26 14:03 25.80810 34.45255 6739 ft 233 kts 308°
2026-04-26 14:04 25.81470 34.43639 6343 ft 232 kts 276°
2026-04-26 14:04 25.81250 34.41879 5920 ft 235 kts 245°
2026-04-26 14:04 25.80203 34.40467 5344 ft 244 kts 212°
2026-04-26 14:04 25.78616 34.39884 5007 ft 242 kts 181°
2026-04-26 14:05 25.77022 34.40319 4729 ft 236 kts 148°
2026-04-26 14:05 25.75855 34.41546 4494 ft 229 kts 127°
2026-04-26 14:05 25.74979 34.42994 4258 ft 225 kts 122°
2026-04-26 14:05 25.74170 34.44471 4049 ft 220 kts 122°
2026-04-26 14:06 25.73389 34.45889 3814 ft 211 kts 122°
2026-04-26 14:06 25.72622 34.47244 3552 ft 205 kts 124°
2026-04-26 14:06 25.71552 34.48222 3287 ft 203 kts 167°
2026-04-26 14:06 25.70174 34.48110 3183 ft 204 kts 193°
2026-04-26 14:07 25.68774 34.47832 2927 ft 204 kts 184°
2026-04-26 14:07 25.67408 34.47770 2906 ft 189 kts 168°
2026-04-26 14:07 25.66312 34.48486 2504 ft 188 kts 131°
2026-04-26 14:07 25.65589 34.49699 2131 ft 185 kts 118°
2026-04-26 14:08 25.65048 34.50910 2029 ft 168 kts 115°
2026-04-26 14:08 25.64559 34.52056 1738 ft 160 kts 119°
2026-04-26 14:08 25.63918 34.52953 1650 ft 139 kts 138°
2026-04-26 14:08 25.63177 34.53607 1554 ft 136 kts 143°
2026-04-26 14:09 25.62385 34.54167 1451 ft 136 kts 153°
2026-04-26 14:09 25.61521 34.54613 1348 ft 137 kts 149°
2026-04-26 14:09 25.60712 34.55177 1231 ft 138 kts 146°
2026-04-26 14:09 25.59879 34.55727 1023 ft 140 kts 150°
2026-04-26 14:10 25.59064 34.56239 805 ft 131 kts 147°
2026-04-26 14:10 25.58256 34.56754 601 ft 146 kts 150°
2026-04-26 14:10 25.57306 34.57312 1221 ft 164 kts 150°
2026-04-26 14:10 25.56233 34.57906 2059 ft 174 kts 153°
2026-04-26 14:11 25.53737 34.59385 2317 ft 204 kts 150°
2026-04-26 14:11 25.52518 34.60131 2407 ft 198 kts 150°
2026-04-26 14:11 25.51328 34.60863 2510 ft 193 kts 150°
2026-04-26 14:12 25.50207 34.61684 2638 ft 195 kts 141°
2026-04-26 14:12 25.49274 34.62777 2745 ft 195 kts 121°
2026-04-26 14:12 25.48788 34.64158 2849 ft 195 kts 100°
2026-04-26 14:12 25.48973 34.65650 2974 ft 203 kts 60°
2026-04-26 14:13 25.51304 34.66468 3220 ft 207 kts 339°
2026-04-26 14:13 25.52698 34.66141 3336 ft 207 kts 11°
2026-04-26 14:13 25.54032 34.66713 3518 ft 209 kts 22°
2026-04-26 14:14 25.55458 34.66864 3591 ft 209 kts 346°
2026-04-26 14:14 25.56766 34.66182 3753 ft 210 kts 327°
2026-04-26 14:14 25.58012 34.65343 3873 ft 208 kts 330°
2026-04-26 14:14 25.59257 34.64530 3994 ft 209 kts 329°
2026-04-26 14:15 25.60534 34.63691 3885 ft 216 kts 329°
2026-04-26 14:15 25.61790 34.62862 3676 ft 210 kts 329°
2026-04-26 14:15 25.63038 34.62043 3417 ft 206 kts 329°
2026-04-26 14:15 25.64261 34.61240 3161 ft 202 kts 329°
2026-04-26 14:16 25.65469 34.60443 2919 ft 197 kts 329°
2026-04-26 14:16 25.66570 34.59614 2653 ft 192 kts 319°
2026-04-26 14:16 25.67589 34.58640 2338 ft 190 kts 319°
2026-04-26 14:16 25.68579 34.57693 2041 ft 188 kts 319°
2026-04-26 14:17 25.69271 34.56541 1993 ft 178 kts 276°
2026-04-26 14:17 25.68951 34.55333 2003 ft 164 kts 224°
2026-04-26 14:17 25.68125 34.54502 2002 ft 161 kts 210°
2026-04-26 14:17 25.67186 34.53879 2008 ft 156 kts 206°
2026-04-26 14:18 25.66240 34.53284 2017 ft 155 kts 206°
2026-04-26 14:18 25.65312 34.52771 2043 ft 146 kts 193°
2026-04-26 14:18 25.64319 34.52813 1962 ft 147 kts 155°
2026-04-26 14:18 25.63428 34.53392 1836 ft 149 kts 146°
2026-04-26 14:19 25.62559 34.54018 1566 ft 150 kts 147°
2026-04-26 14:19 25.61666 34.54600 1359 ft 148 kts 150°
2026-04-26 14:19 25.60774 34.55151 1165 ft 147 kts 148°
2026-04-26 14:19 25.59892 34.55719 953 ft 146 kts 148°
2026-04-26 14:20 25.59012 34.56275 746 ft 145 kts 150°
2026-04-26 14:20 25.58137 34.56829 533 ft 145 kts 148°
2026-04-26 14:20 25.57269 34.57385 353 ft 143 kts 149°
2026-04-26 14:20 25.56432 34.57922 257 ft 125 kts 149°
2026-04-26 14:21 25.55809 34.58320 260 ft 82 kts 150°
2026-04-26 14:21 25.55549 34.58484 257 ft 22 kts 149°
2026-04-26 14:21 25.55492 34.58562 255 ft 11 kts 88°
2026-04-26 14:21 25.55521 34.58638 255 ft 11 kts 60°
2026-04-26 14:22 25.55557 34.58710 253 ft 11 kts 60°
2026-04-26 14:22 25.55602 34.58792 246 ft 12 kts 58°
2026-04-26 14:22 25.55620 34.58825 242 ft 1 kts 58°
2026-04-26 14:22 25.55631 34.58845 241 ft 5 kts 65°
2026-04-26 14:23 25.55634 34.58853 241 ft 1 kts 68°
2026-04-26 14:23 25.55627 34.58886 241 ft 8 kts 126°
2026-04-26 14:23 25.55575 34.58927 241 ft 10 kts 150°
2026-04-26 14:23 25.55547 34.58944 241 ft 1 kts 150°
2026-04-26 14:24 25.55537 34.58951 241 ft 4 kts 150°
2026-04-26 14:24 25.55490 34.58981 241 ft 9 kts 150°
2026-04-26 14:24 25.55481 34.58986 241 ft 0 kts 149°
2026-04-26 14:24 25.55480 34.58995 241 ft 2 kts 93°
2026-04-26 14:25 25.55501 34.59043 241 ft 7 kts 61°
2026-04-26 14:25 25.55509 34.59059 241 ft 0 kts 60°
2026-04-26 14:25 25.55510 34.59061 241 ft 0 kts 60°